Regional Weather Roundup
Issued by NWS Goodland, KS

Home | Current Version | Previous Version | Text Only | Print | Product List | Glossary Off
Versions: 1 2 3 4 5 6 7 8 9 10 11 12 13 14 15 16 17 18 19 20 21 22 23 24 25 26 27 28 29 30 31 32 33 34 35 36 37 38 39 40 41 42 43 44 45 46 47 48 49 50

000
ASUS43 KGLD 171559
RWRGLD

GOODLAND FORECAST AREA HOURLY WEATHER ROUNDUP
NATIONAL WEATHER SERVICE GOODLAND KS
1000 AM MDT WED SEP 17 2014

...OFFICIAL OBSERVATIONS...

CITY           SKY/WX    TMP DP  RH WIND       PRES   REMARKS
GOODLAND KS    SUNNY     76  52  43 E5        30.00S
HILL CITY KS   SUNNY     68  59  73 CALM      29.95S
IMPERIAL NEB   SUNNY     73  55  53 N3        29.98R
MCCOOK NEB     MOSUNNY   57  56  96 SW6       29.96S FOG
AKRON CO       PTSUNNY   66  46  48 W18       30.04R
BURLINGTON CO  SUNNY     81  51  35 S6        30.02S
LIMON CO       NOT AVBL
$$

...UNOFFICIAL OBSERVATIONS...

CITY           SKY/WX    TMP DP  RH WIND       PRES   REMARKS
COLBY KS       SUNNY     75  61  60 NE5       29.99S
GOVE KS          N/A     73  32  22 MISG        N/A
SHARON SPRINGS   N/A     82  56  41 CALM        N/A
WAKEENEY KS      N/A     66  59  78 MISG        N/A
TRENTON NEB      N/A     64  32  30 CALM        N/A
YUMA CO          N/A     75  45  33 W10         N/A
$$



USA.gov is the U.S. government's official web portal to all federal, state and local government web resources and services.